Zurück zum Katalog

FENGYUN 1C DEB

AktivSSO
NORAD 31353·DEBRIS·🇨🇳 China

Gestartet May 10, 1999 von Taiyuan Satellite Launch Center

Loading…

Nächste Überflüge (nächste 24 Stunden)

TLE

VeraltetSource: Space-Track

Epoche: Sep 3, 2026, 01:28 UTC

1 31353U 99025BRH 26246.06113791  .00001184  00000-0  35781-3 0  9999
2 31353  99.0040 185.5924 0226886  19.1949 341.7610 14.30669484  2018

Verfolge FENGYUN 1C DEB in Echtzeit mit AllMySat

Download on the App Store